Orbital Elements at Epoch 2459200.5 (2020-Dec-17.0) TDB
Reference: JPL 18 (heliocentric ecliptic J2000)
Element | Value | Uncertainty (1-sigma) | Units |
e | .05852537763962024 | 4.9535e-08 | |
a | 2.896826370733341 | 2.1049e-08 | au |
q | 2.727288513429762 | 1.4665e-07 | au |
i | 2.695377843424891 | 6.3176e-06 | deg |
node | 49.59490203306672 | 0.00010805 | deg |
peri | 10.08730745433037 | 0.00012276 | deg |
M | 335.9188556180728 | 5.6825e-05 | deg |
tp | 2459320.963851854003 (2021-Apr-16.46385185) | 0.00028426 | TDB |
period | 1800.869011025396 4.93 | 1.9629e-05 5.374e-08 | d yr |
n | .1999034898129652 | 2.1788e-09 | deg/d |
Q | 3.066364228036921 | 2.2281e-08 | au |
|
| | Orbit Determination Parameters
Additional Information
|